When you browse on this site, cookies collect data to enhance your experience and personalize the content and advertising you see.
Visit our Privacy Policy to learn more. By continuing to use the site, you agree to this use of cookies and data.
  • Em Portugal
  • Lista de países
  • Para 7 dias
  • Temperatura da água
  • Mapas de satélite
  • Mapa do tempo
  • Widgets de tempo
  • user-avatar
    Iniciar Sessão

    Previsão horária em Kostyushino

    Hoje, 16 Julho, Terça-feira

    Tempo Temperatura Precipitação Vento Pressão Humidade
    00:00 +10°C° 0 mm 1 m/s 745 mmHg 91%
    01:00 +9°C° 0 mm 0 m/s 745 mmHg 91%
    02:00 +8°C° 0 mm 0 m/s 745 mmHg 92%
    03:00 +9°C° 0 mm 0 m/s 745 mmHg 92%
    04:00 +10°C° 0 mm 0 m/s 745 mmHg 91%
    05:00 +12°C° 0 mm 1 m/s 745 mmHg 91%
    06:00 +14°C° 0 mm 1 m/s 745 mmHg 84%
    07:00 +15°C° 0 mm 1 m/s 745 mmHg 78%
    08:00 +18°C° 0 mm 1 m/s 745 mmHg 71%
    09:00 +19°C° 0 mm 1 m/s 745 mmHg 67%
    10:00 +21°C° 0 mm 1 m/s 745 mmHg 62%
    11:00 +21°C° 0 mm 2 m/s 745 mmHg 57%
    12:00 +21°C° 0.1 mm 2 m/s 745 mmHg 58%
    13:00 +21°C° 0.1 mm 2 m/s 745 mmHg 60%
    14:00 +21°C° 0.1 mm 2 m/s 745 mmHg 61%
    15:00 +20°C° 0.6 mm 2 m/s 744 mmHg 71%
    16:00 +18°C° 0.6 mm 2 m/s 744 mmHg 80%
    17:00 +17°C° 0.6 mm 3 m/s 744 mmHg 90%
    18:00 +16°C° 0.3 mm 2 m/s 744 mmHg 92%
    19:00 +15°C° 0.3 mm 2 m/s 744 mmHg 94%
    20:00 +14°C° 0.3 mm 2 m/s 744 mmHg 96%
    21:00 +14°C° 0.2 mm 2 m/s 744 mmHg 97%
    22:00 +14°C° 0.2 mm 2 m/s 744 mmHg 97%
    23:00 +13°C° 0.2 mm 3 m/s 744 mmHg 97%

    Amanhã, 17 Julho, Quarta-feira

    Tempo Temperatura Precipitação Vento Pressão Humidade
    00:00 +13°C° 0.2 mm 3 m/s 744 mmHg 97%
    01:00 +13°C° 0.2 mm 3 m/s 743 mmHg 98%
    02:00 +13°C° 0.2 mm 3 m/s 743 mmHg 98%
    03:00 +14°C° 0.7 mm 3 m/s 743 mmHg 98%
    04:00 +14°C° 0.7 mm 3 m/s 743 mmHg 98%
    05:00 +14°C° 0.7 mm 3 m/s 742 mmHg 98%
    06:00 +14°C° 0.2 mm 3 m/s 742 mmHg 97%
    07:00 +16°C° 0.2 mm 3 m/s 742 mmHg 97%
    08:00 +16°C° 0.2 mm 3 m/s 743 mmHg 96%
    09:00 +16°C° 0.4 mm 3 m/s 742 mmHg 95%
    10:00 +17°C° 0.4 mm 4 m/s 742 mmHg 95%
    11:00 +17°C° 0.4 mm 4 m/s 742 mmHg 95%
    12:00 +17°C° 0.3 mm 4 m/s 742 mmHg 95%
    13:00 +17°C° 0.3 mm 3 m/s 742 mmHg 95%
    14:00 +17°C° 0.3 mm 3 m/s 742 mmHg 95%
    15:00 +17°C° 0.6 mm 3 m/s 742 mmHg 95%
    16:00 +18°C° 0.6 mm 2 m/s 742 mmHg 94%
    17:00 +18°C° 0.6 mm 2 m/s 742 mmHg 93%
    18:00 +18°C° 0.9 mm 2 m/s 741 mmHg 93%
    19:00 +17°C° 0.9 mm 2 m/s 741 mmHg 93%
    20:00 +17°C° 0.9 mm 2 m/s 741 mmHg 93%
    21:00 +16°C° 0.2 mm 2 m/s 741 mmHg 94%
    22:00 +16°C° 0.2 mm 2 m/s 741 mmHg 95%
    23:00 +16°C° 0.2 mm 2 m/s 741 mmHg 96%

    Depois de amanhã, 18 Julho, Quinta-feira

    Tempo Temperatura Precipitação Vento Pressão Humidade
    00:00 +16°C° 0.6 mm 3 m/s 740 mmHg 96%
    01:00 +14°C° 0.6 mm 3 m/s 740 mmHg 97%
    02:00 +14°C° 0.6 mm 3 m/s 740 mmHg 98%
    03:00 +14°C° 1.5 mm 3 m/s 739 mmHg 98%
    04:00 +14°C° 1.5 mm 3 m/s 739 mmHg 98%
    05:00 +14°C° 1.5 mm 3 m/s 739 mmHg 98%
    06:00 +16°C° 0.5 mm 3 m/s 739 mmHg 98%
    07:00 +16°C° 0.5 mm 2 m/s 739 mmHg 97%
    08:00 +16°C° 0.5 mm 2 m/s 739 mmHg 97%
    09:00 +17°C° 0.5 mm 2 m/s 739 mmHg 93%
    10:00 +18°C° 0.5 mm 2 m/s 739 mmHg 89%
    11:00 +20°C° 0.5 mm 2 m/s 739 mmHg 86%
    12:00 +20°C° 1.2 mm 2 m/s 739 mmHg 85%
    13:00 +20°C° 1.2 mm 2 m/s 739 mmHg 84%
    14:00 +21°C° 1.2 mm 2 m/s 739 mmHg 83%
    15:00 +21°C° 1.4 mm 2 m/s 739 mmHg 85%
    16:00 +20°C° 1.4 mm 2 m/s 739 mmHg 86%
    17:00 +20°C° 1.4 mm 2 m/s 739 mmHg 88%
    18:00 +19°C° 0.1 mm 2 m/s 739 mmHg 89%
    19:00 +17°C° 0.1 mm 2 m/s 739 mmHg 91%
    20:00 +16°C° 0.1 mm 2 m/s 739 mmHg 93%
    21:00 +15°C° 0 mm 2 m/s 739 mmHg 93%
    22:00 +14°C° 0 mm 2 m/s 740 mmHg 94%
    23:00 +13°C° 0 mm 2 m/s 740 mmHg 95%

    19 Julho, Sexta-feira

    Tempo Temperatura Precipitação Vento Pressão Humidade
    00:00 +13°C° 0 mm 2 m/s 740 mmHg 96%
    01:00 +12°C° 0 mm 2 m/s 740 mmHg 96%
    02:00 +12°C° 0 mm 2 m/s 740 mmHg 96%
    03:00 +13°C° 0.1 mm 2 m/s 740 mmHg 97%
    04:00 +13°C° 0.1 mm 2 m/s 740 mmHg 97%
    05:00 +13°C° 0.1 mm 2 m/s 740 mmHg 97%
    06:00 +13°C° 0.5 mm 3 m/s 740 mmHg 97%
    07:00 +13°C° 0.5 mm 3 m/s 740 mmHg 97%
    08:00 +13°C° 0.5 mm 3 m/s 740 mmHg 97%
    09:00 +13°C° 0.6 mm 4 m/s 740 mmHg 97%
    10:00 +14°C° 0.6 mm 4 m/s 740 mmHg 96%
    11:00 +14°C° 0.6 mm 4 m/s 740 mmHg 96%
    12:00 +15°C° 0.5 mm 4 m/s 740 mmHg 91%
    13:00 +18°C° 0.5 mm 4 m/s 740 mmHg 85%
    14:00 +19°C° 0.5 mm 4 m/s 740 mmHg 80%
    15:00 +19°C° 0.2 mm 4 m/s 740 mmHg 81%
    16:00 +18°C° 0.2 mm 4 m/s 740 mmHg 82%
    17:00 +18°C° 0.2 mm 3 m/s 740 mmHg 83%
    18:00 +17°C° 0 mm 3 m/s 740 mmHg 87%
    19:00 +16°C° 0 mm 2 m/s 740 mmHg 91%
    20:00 +15°C° 0 mm 1 m/s 740 mmHg 95%
    21:00 +14°C° 0 mm 2 m/s 740 mmHg 95%
    22:00 +14°C° 0 mm 2 m/s 741 mmHg 96%
    23:00 +13°C° 0 mm 2 m/s 741 mmHg 96%

    20 Julho, Sábado

    Tempo Temperatura Precipitação Vento Pressão Humidade
    00:00 +13°C° 0 mm 2 m/s 741 mmHg 96%
    01:00 +13°C° 0 mm 2 m/s 741 mmHg 96%
    02:00 +13°C° 0 mm 2 m/s 741 mmHg 96%
    03:00 +13°C° 0 mm 2 m/s 741 mmHg 96%
    04:00 +13°C° 0 mm 2 m/s 741 mmHg 97%
    05:00 +13°C° 0 mm 2 m/s 742 mmHg 97%
    06:00 +14°C° 0 mm 2 m/s 742 mmHg 94%
    07:00 +15°C° 0 mm 2 m/s 742 mmHg 91%
    08:00 +16°C° 0 mm 2 m/s 742 mmHg 88%
    09:00 +17°C° 0.1 mm 3 m/s 743 mmHg 86%
    10:00 +17°C° 0.1 mm 3 m/s 743 mmHg 83%
    11:00 +18°C° 0.1 mm 4 m/s 743 mmHg 81%
    12:00 +18°C° 0.5 mm 4 m/s 743 mmHg 83%
    13:00 +18°C° 0.5 mm 4 m/s 743 mmHg 86%
    14:00 +18°C° 0.5 mm 4 m/s 743 mmHg 88%
    15:00 +18°C° 0.3 mm 3 m/s 743 mmHg 89%
    16:00 +17°C° 0.3 mm 3 m/s 744 mmHg 89%
    17:00 +17°C° 0.3 mm 3 m/s 744 mmHg 89%
    18:00 +16°C° 0.1 mm 3 m/s 744 mmHg 92%
    19:00 +16°C° 0.1 mm 2 m/s 744 mmHg 94%
    20:00 +15°C° 0.1 mm 2 m/s 744 mmHg 97%
    21:00 +15°C° 0.1 mm 2 m/s 744 mmHg 97%
    22:00 +14°C° 0.1 mm 3 m/s 744 mmHg 98%
    23:00 +14°C° 0.1 mm 3 m/s 744 mmHg 98%

    21 Julho, Domingo

    Tempo Temperatura Precipitação Vento Pressão Humidade
    00:00 +14°C° 0 mm 3 m/s 744 mmHg 98%
    01:00 +14°C° 0 mm 3 m/s 744 mmHg 97%
    02:00 +14°C° 0 mm 3 m/s 744 mmHg 97%
    03:00 +14°C° 0 mm 3 m/s 745 mmHg 97%
    04:00 +14°C° 0 mm 3 m/s 745 mmHg 97%
    05:00 +14°C° 0 mm 3 m/s 745 mmHg 97%
    06:00 +14°C° 0 mm 3 m/s 745 mmHg 96%
    07:00 +14°C° 0 mm 3 m/s 745 mmHg 95%
    08:00 +16°C° 0 mm 3 m/s 745 mmHg 94%
    09:00 +16°C° 0 mm 3 m/s 746 mmHg 93%
    10:00 +16°C° 0 mm 2 m/s 746 mmHg 92%
    11:00 +17°C° 0 mm 2 m/s 746 mmHg 90%
    12:00 +17°C° 0.4 mm 2 m/s 746 mmHg 89%
    13:00 +18°C° 0.4 mm 2 m/s 746 mmHg 87%
    14:00 +19°C° 0.4 mm 2 m/s 746 mmHg 85%
    15:00 +20°C° 0.2 mm 2 m/s 746 mmHg 81%
    16:00 +20°C° 0.2 mm 2 m/s 747 mmHg 78%
    17:00 +20°C° 0.2 mm 2 m/s 747 mmHg 74%
    18:00 +18°C° 0 mm 2 m/s 747 mmHg 79%
    19:00 +17°C° 0 mm 2 m/s 747 mmHg 85%
    20:00 +15°C° 0 mm 2 m/s 747 mmHg 91%
    21:00 +14°C° 0 mm 2 m/s 747 mmHg 92%
    22:00 +13°C° 0 mm 2 m/s 747 mmHg 94%
    23:00 +11°C° 0 mm 1 m/s 747 mmHg 95%
    Mostrar mais